Year,Month,Day,Hour,Minute,Value (Times are PST for windspeed in km/hr)
2008,07,29,00,00,7.60
2008,07,29,00,01,5.50
2008,07,29,00,02,8.30
2008,07,29,00,03,7.20
2008,07,29,00,04,8.20
2008,07,29,00,05,8.90
2008,07,29,00,06,5.60
2008,07,29,00,07,4.60
2008,07,29,00,08,5.10
2008,07,29,00,09,4.30
2008,07,29,00,10,5.70
2008,07,29,00,11,4.30
2008,07,29,00,12,4.10
2008,07,29,00,13,6.60
2008,07,29,00,14,4.00
2008,07,29,00,15,5.30
2008,07,29,00,16,5.60
2008,07,29,00,17,6.10
2008,07,29,00,18,6.00
2008,07,29,00,19,3.90
2008,07,29,00,20,7.00
2008,07,29,00,21,5.60
2008,07,29,00,22,6.00
2008,07,29,00,23,8.10
2008,07,29,00,24,6.90
2008,07,29,00,25,5.80
2008,07,29,00,26,6.70
2008,07,29,00,27,3.70
2008,07,29,00,28,3.50
2008,07,29,00,29,4.90
2008,07,29,00,30,3.30
2008,07,29,00,31,3.20
2008,07,29,00,32,4.30
2008,07,29,00,33,2.50
2008,07,29,00,34,3.70
2008,07,29,00,35,2.40
2008,07,29,00,36,2.50
2008,07,29,00,37,3.60
2008,07,29,00,38,6.20
2008,07,29,00,39,7.40
2008,07,29,00,40,6.90
2008,07,29,00,41,5.10
2008,07,29,00,42,4.90
2008,07,29,00,43,4.80
2008,07,29,00,44,6.70
2008,07,29,00,45,5.70
2008,07,29,00,46,5.90
2008,07,29,00,47,6.80
2008,07,29,00,48,5.30
2008,07,29,00,49,5.90
2008,07,29,00,50,7.50
2008,07,29,00,51,7.10
2008,07,29,00,52,5.80
2008,07,29,00,53,5.80
2008,07,29,00,54,9.90
2008,07,29,00,55,8.90
2008,07,29,00,56,7.70
2008,07,29,00,57,8.30
2008,07,29,00,58,7.00
2008,07,29,00,59,8.20
2008,07,29,01,00,9.30
2008,07,29,01,01,6.70
2008,07,29,01,02,9.10
2008,07,29,01,03,7.60
2008,07,29,01,04,9.50
2008,07,29,01,05,9.30
2008,07,29,01,06,8.00
2008,07,29,01,07,10.40
2008,07,29,01,08,7.50
2008,07,29,01,09,6.90
2008,07,29,01,10,7.40
2008,07,29,01,11,8.40
2008,07,29,01,12,7.00
2008,07,29,01,13,7.20
2008,07,29,01,14,6.40
2008,07,29,01,15,7.10
2008,07,29,01,16,7.40
2008,07,29,01,17,8.50
2008,07,29,01,18,7.30
2008,07,29,01,19,7.00
2008,07,29,01,20,6.90
2008,07,29,01,21,7.20
2008,07,29,01,22,8.70
2008,07,29,01,23,8.60
2008,07,29,01,24,7.00
2008,07,29,01,25,7.10
2008,07,29,01,26,8.70
2008,07,29,01,27,7.30
2008,07,29,01,28,6.00
2008,07,29,01,29,6.50
2008,07,29,01,30,4.10
2008,07,29,01,31,4.90
2008,07,29,01,32,7.90
2008,07,29,01,33,7.80
2008,07,29,01,34,6.40
2008,07,29,01,35,6.10
2008,07,29,01,36,8.00
2008,07,29,01,37,12.90
2008,07,29,01,38,11.20
2008,07,29,01,39,7.90
2008,07,29,01,40,8.10
2008,07,29,01,41,7.00
2008,07,29,01,42,5.80
2008,07,29,01,43,9.80
2008,07,29,01,44,7.10
2008,07,29,01,45,5.80
2008,07,29,01,46,7.50
2008,07,29,01,47,5.10
2008,07,29,01,48,10.10
2008,07,29,01,49,6.00
2008,07,29,01,50,7.00
2008,07,29,01,51,8.60
2008,07,29,01,52,7.30
2008,07,29,01,53,5.10
2008,07,29,01,54,8.10
2008,07,29,01,55,5.50
2008,07,29,01,56,5.80
2008,07,29,01,57,6.40
2008,07,29,01,58,5.50
2008,07,29,01,59,4.60
2008,07,29,02,00,3.80
2008,07,29,02,01,4.10
2008,07,29,02,02,4.40
2008,07,29,02,03,4.60
2008,07,29,02,04,4.40
2008,07,29,02,05,4.40
2008,07,29,02,06,7.10
2008,07,29,02,07,6.70
2008,07,29,02,08,8.50
2008,07,29,02,09,11.20
2008,07,29,02,10,10.90
2008,07,29,02,11,13.30
2008,07,29,02,12,8.60
2008,07,29,02,13,7.20
2008,07,29,02,14,5.30
2008,07,29,02,15,5.90
2008,07,29,02,16,7.70
2008,07,29,02,17,6.00
2008,07,29,02,18,4.70
2008,07,29,02,19,5.90
2008,07,29,02,20,5.90
2008,07,29,02,21,4.10
2008,07,29,02,22,4.10
2008,07,29,02,23,5.00
2008,07,29,02,24,4.60
2008,07,29,02,25,4.60
2008,07,29,02,26,5.70
2008,07,29,02,27,5.00
2008,07,29,02,28,6.50
2008,07,29,02,29,5.30
2008,07,29,02,30,5.20
2008,07,29,02,31,5.30
2008,07,29,02,32,5.10
2008,07,29,02,33,3.00
2008,07,29,02,34,2.60
2008,07,29,02,35,3.00
2008,07,29,02,36,3.90
2008,07,29,02,37,5.30
2008,07,29,02,38,6.60
2008,07,29,02,39,7.40
2008,07,29,02,40,8.40
2008,07,29,02,41,10.10
2008,07,29,02,42,9.60
2008,07,29,02,43,6.90
2008,07,29,02,44,9.10
2008,07,29,02,45,6.80
2008,07,29,02,46,8.20
2008,07,29,02,47,9.20
2008,07,29,02,48,6.20
2008,07,29,02,49,6.40
2008,07,29,02,50,6.50
2008,07,29,02,51,5.90
2008,07,29,02,52,7.80
2008,07,29,02,53,6.10
2008,07,29,02,54,7.20
2008,07,29,02,55,5.40
2008,07,29,02,56,4.40
2008,07,29,02,57,5.70
2008,07,29,02,58,6.10
2008,07,29,02,59,8.00
2008,07,29,03,00,6.00
2008,07,29,03,01,5.90
2008,07,29,03,02,6.70
2008,07,29,03,03,4.80
2008,07,29,03,04,5.00
2008,07,29,03,05,4.90
2008,07,29,03,06,6.00
2008,07,29,03,07,5.30
2008,07,29,03,08,5.50
2008,07,29,03,09,6.90
2008,07,29,03,10,4.90
2008,07,29,03,11,7.60
2008,07,29,03,12,8.30
2008,07,29,03,13,7.30
2008,07,29,03,14,5.10
2008,07,29,03,15,5.10
2008,07,29,03,16,4.70
2008,07,29,03,17,5.70
2008,07,29,03,18,5.10
2008,07,29,03,19,5.00
2008,07,29,03,20,7.00
2008,07,29,03,21,4.40
2008,07,29,03,22,9.90
2008,07,29,03,23,7.20
2008,07,29,03,24,7.00
2008,07,29,03,25,7.10
2008,07,29,03,26,7.70
2008,07,29,03,27,8.10
2008,07,29,03,28,5.10
2008,07,29,03,29,5.50
2008,07,29,03,30,7.40
2008,07,29,03,31,7.70
2008,07,29,03,32,6.90
2008,07,29,03,33,6.90
2008,07,29,03,34,5.10
2008,07,29,03,35,8.00
2008,07,29,03,36,8.90
2008,07,29,03,37,8.60
2008,07,29,03,38,7.20
2008,07,29,03,39,8.10
2008,07,29,03,40,9.30
2008,07,29,03,41,7.90
2008,07,29,03,42,6.90
2008,07,29,03,43,4.40
2008,07,29,03,44,6.40
2008,07,29,03,45,7.50
2008,07,29,03,46,7.60
2008,07,29,03,47,6.90
2008,07,29,03,48,4.60
2008,07,29,03,49,2.80
2008,07,29,03,50,5.80
2008,07,29,03,51,8.10
2008,07,29,03,52,7.40
2008,07,29,03,53,8.70
2008,07,29,03,54,7.20
2008,07,29,03,55,8.10
2008,07,29,03,56,7.00
2008,07,29,03,57,5.70
2008,07,29,03,58,5.20
2008,07,29,03,59,7.80
2008,07,29,04,00,7.20
2008,07,29,04,01,5.40
2008,07,29,04,02,6.80
2008,07,29,04,03,4.20
2008,07,29,04,04,5.20
2008,07,29,04,05,3.60
2008,07,29,04,06,5.40
2008,07,29,04,07,3.40
2008,07,29,04,08,4.80
2008,07,29,04,09,4.80
2008,07,29,04,10,5.10
2008,07,29,04,11,4.20
2008,07,29,04,12,5.50
2008,07,29,04,13,4.60
2008,07,29,04,14,5.90
2008,07,29,04,15,6.10
2008,07,29,04,16,6.10
2008,07,29,04,17,6.50
2008,07,29,04,18,6.70
2008,07,29,04,19,6.00
2008,07,29,04,20,6.30
2008,07,29,04,21,7.30
2008,07,29,04,22,4.60
2008,07,29,04,23,4.20
2008,07,29,04,24,5.30
2008,07,29,04,25,4.30
2008,07,29,04,26,3.50
2008,07,29,04,27,4.10
2008,07,29,04,28,3.50
2008,07,29,04,29,5.10
2008,07,29,04,30,4.70
2008,07,29,04,31,4.30
2008,07,29,04,32,4.40
2008,07,29,04,33,3.50
2008,07,29,04,34,3.30
2008,07,29,04,35,2.40
2008,07,29,04,36,3.60
2008,07,29,04,37,3.30
2008,07,29,04,38,3.40
2008,07,29,04,39,3.50
2008,07,29,04,40,1.90
2008,07,29,04,41,2.70
2008,07,29,04,42,2.10
2008,07,29,04,43,2.50
2008,07,29,04,44,1.10
2008,07,29,04,45,3.10
2008,07,29,04,46,4.00
2008,07,29,04,47,5.20
2008,07,29,04,48,4.40
2008,07,29,04,49,3.60
2008,07,29,04,50,1.30
2008,07,29,04,51,1.90
2008,07,29,04,52,2.10
2008,07,29,04,53,2.90
2008,07,29,04,54,4.70
2008,07,29,04,55,3.40
2008,07,29,04,56,4.50
2008,07,29,04,57,3.90
2008,07,29,04,58,3.90
2008,07,29,04,59,3.10
2008,07,29,05,00,1.80
2008,07,29,05,01,1.90
2008,07,29,05,02,0.80
2008,07,29,05,03,2.60
2008,07,29,05,04,4.70
2008,07,29,05,05,4.70
2008,07,29,05,06,2.90
2008,07,29,05,07,5.10
2008,07,29,05,08,2.40
2008,07,29,05,09,2.10
2008,07,29,05,10,0.60
2008,07,29,05,11,0.00
2008,07,29,05,12,0.90
2008,07,29,05,13,0.80
2008,07,29,05,14,1.40
2008,07,29,05,15,0.10
2008,07,29,05,16,1.20
2008,07,29,05,17,1.90
2008,07,29,05,18,0.00
2008,07,29,05,19,0.00
2008,07,29,05,20,0.00
2008,07,29,05,21,0.00
2008,07,29,05,22,0.00
2008,07,29,05,23,0.00
2008,07,29,05,24,0.00
2008,07,29,05,25,0.00
2008,07,29,05,26,0.00
2008,07,29,05,27,0.00
2008,07,29,05,28,0.00
2008,07,29,05,29,0.00
2008,07,29,05,30,0.00
2008,07,29,05,31,0.00
2008,07,29,05,32,0.00
2008,07,29,05,33,0.00
2008,07,29,05,34,0.00
2008,07,29,05,35,0.00
2008,07,29,05,36,0.00
2008,07,29,05,37,0.00
2008,07,29,05,38,0.00
2008,07,29,05,39,0.00
2008,07,29,05,40,0.00
2008,07,29,05,41,0.00
2008,07,29,05,42,0.00
2008,07,29,05,43,0.00
2008,07,29,05,44,0.00
2008,07,29,05,45,0.00
2008,07,29,05,46,0.00
2008,07,29,05,47,0.00
2008,07,29,05,48,0.00
2008,07,29,05,49,0.00
2008,07,29,05,50,0.00
2008,07,29,05,51,0.00
2008,07,29,05,52,0.00
2008,07,29,05,53,0.20
2008,07,29,05,54,2.40
2008,07,29,05,55,3.70
2008,07,29,05,56,5.80
2008,07,29,05,57,7.40
2008,07,29,05,58,4.30
2008,07,29,05,59,4.70
2008,07,29,06,00,3.60
2008,07,29,06,01,6.20
2008,07,29,06,02,4.90
2008,07,29,06,03,4.80
2008,07,29,06,04,4.20
2008,07,29,06,05,2.70
2008,07,29,06,06,2.00
2008,07,29,06,07,1.50
2008,07,29,06,08,1.90
2008,07,29,06,09,1.10
2008,07,29,06,10,3.40
2008,07,29,06,11,3.00
2008,07,29,06,12,1.80
2008,07,29,06,13,2.10
2008,07,29,06,14,3.60
2008,07,29,06,15,3.70
2008,07,29,06,16,4.60
2008,07,29,06,17,4.20
2008,07,29,06,18,4.40
2008,07,29,06,19,1.40
2008,07,29,06,20,3.40
2008,07,29,06,21,1.90
2008,07,29,06,22,3.70
2008,07,29,06,23,2.50
2008,07,29,06,24,3.30
2008,07,29,06,25,4.10
2008,07,29,06,26,3.40
2008,07,29,06,27,4.00
2008,07,29,06,28,3.90
2008,07,29,06,29,5.10
2008,07,29,06,30,6.90
2008,07,29,06,31,6.30
2008,07,29,06,32,6.00
2008,07,29,06,33,5.20
2008,07,29,06,34,9.60
2008,07,29,06,35,9.10
2008,07,29,06,36,5.70
2008,07,29,06,37,7.00
2008,07,29,06,38,9.20
2008,07,29,06,39,7.00
2008,07,29,06,40,7.20
2008,07,29,06,41,8.70
2008,07,29,06,42,7.10
2008,07,29,06,43,6.40
2008,07,29,06,44,5.50
2008,07,29,06,45,8.00
2008,07,29,06,46,6.00
2008,07,29,06,47,5.20
2008,07,29,06,48,4.00
2008,07,29,06,49,2.00
2008,07,29,06,50,4.70
2008,07,29,06,51,4.60
2008,07,29,06,52,2.20
2008,07,29,06,53,5.10
2008,07,29,06,54,5.00
2008,07,29,06,55,6.00
2008,07,29,06,56,4.30
2008,07,29,06,57,3.70
2008,07,29,06,58,6.00
2008,07,29,06,59,3.30
2008,07,29,07,00,5.20
2008,07,29,07,01,3.80
2008,07,29,07,02,3.40
2008,07,29,07,03,4.60
2008,07,29,07,04,3.20
2008,07,29,07,05,3.10
2008,07,29,07,06,2.90
2008,07,29,07,07,2.70
2008,07,29,07,08,5.30
2008,07,29,07,09,4.70
2008,07,29,07,10,2.80
2008,07,29,07,11,1.40
2008,07,29,07,12,0.80
2008,07,29,07,13,2.00
2008,07,29,07,14,3.00
2008,07,29,07,15,1.30
2008,07,29,07,16,1.80
2008,07,29,07,17,0.10
2008,07,29,07,18,0.30
2008,07,29,07,19,0.70
2008,07,29,07,20,2.10
2008,07,29,07,21,2.80
2008,07,29,07,22,0.60
2008,07,29,07,23,0.00
2008,07,29,07,24,0.70
2008,07,29,07,25,0.70
2008,07,29,07,26,3.50
2008,07,29,07,27,1.40
2008,07,29,07,28,0.00
2008,07,29,07,29,0.00
2008,07,29,07,30,0.00
2008,07,29,07,31,0.00
2008,07,29,07,32,0.00
2008,07,29,07,33,0.00
2008,07,29,07,34,0.00
2008,07,29,07,35,0.00
2008,07,29,07,36,0.00
2008,07,29,07,37,0.00
2008,07,29,07,38,0.00
2008,07,29,07,39,0.00
2008,07,29,07,40,1.00
2008,07,29,07,41,0.40
2008,07,29,07,42,0.80
2008,07,29,07,43,1.40
2008,07,29,07,44,0.00
2008,07,29,07,45,1.70
2008,07,29,07,46,0.60
2008,07,29,07,47,0.40
2008,07,29,07,48,0.00
2008,07,29,07,49,0.00
2008,07,29,07,50,0.00
2008,07,29,07,51,0.70
2008,07,29,07,52,0.30
2008,07,29,07,53,0.10
2008,07,29,07,54,0.00
2008,07,29,07,55,0.00
2008,07,29,07,56,1.60
2008,07,29,07,57,1.00
2008,07,29,07,58,1.00
2008,07,29,07,59,2.00
2008,07,29,08,00,2.90
2008,07,29,08,01,1.80
2008,07,29,08,02,3.90
2008,07,29,08,03,5.60
2008,07,29,08,04,3.80
2008,07,29,08,05,3.10
2008,07,29,08,06,2.40
2008,07,29,08,07,3.70
2008,07,29,08,08,2.10
2008,07,29,08,09,0.70
2008,07,29,08,10,2.30
2008,07,29,08,11,4.40
2008,07,29,08,12,4.00
2008,07,29,08,13,2.20
2008,07,29,08,14,4.00
2008,07,29,08,15,4.60
2008,07,29,08,16,5.60
2008,07,29,08,17,2.20
2008,07,29,08,18,0.50
2008,07,29,08,19,2.30
2008,07,29,08,20,0.80
2008,07,29,08,21,3.60
2008,07,29,08,22,1.20
2008,07,29,08,23,2.80
2008,07,29,08,24,4.00
2008,07,29,08,25,0.60
2008,07,29,08,26,0.20
2008,07,29,08,27,1.60
2008,07,29,08,28,2.10
2008,07,29,08,29,3.00
2008,07,29,08,30,0.70
2008,07,29,08,31,0.00
2008,07,29,08,32,0.10
2008,07,29,08,33,1.40
2008,07,29,08,34,1.70
2008,07,29,08,35,1.20
2008,07,29,08,36,4.80
2008,07,29,08,37,1.20
2008,07,29,08,38,4.60
2008,07,29,08,39,4.60
2008,07,29,08,40,3.00
2008,07,29,08,41,2.00
2008,07,29,08,42,0.30
2008,07,29,08,43,1.60
2008,07,29,08,44,1.30
2008,07,29,08,45,0.90
2008,07,29,08,46,3.10
2008,07,29,08,47,1.60
2008,07,29,08,48,1.70
2008,07,29,08,49,3.80
2008,07,29,08,50,3.70
2008,07,29,08,51,0.30
2008,07,29,08,52,0.20
2008,07,29,08,53,0.40
2008,07,29,08,54,1.20
2008,07,29,08,55,0.10
2008,07,29,08,56,0.00
2008,07,29,08,57,1.80
2008,07,29,08,58,1.10
2008,07,29,08,59,0.60
2008,07,29,09,00,0.60
2008,07,29,09,01,0.00
2008,07,29,09,02,0.70
2008,07,29,09,03,0.90
2008,07,29,09,04,0.90
2008,07,29,09,05,2.70
2008,07,29,09,06,3.20
2008,07,29,09,07,0.60
2008,07,29,09,08,0.00
2008,07,29,09,09,1.20
2008,07,29,09,10,2.20
2008,07,29,09,11,4.00
2008,07,29,09,12,4.00
2008,07,29,09,13,2.00
2008,07,29,09,14,5.60
2008,07,29,09,15,2.70
2008,07,29,09,16,3.40
2008,07,29,09,17,3.20
2008,07,29,09,18,3.20
2008,07,29,09,19,2.40
2008,07,29,09,20,2.60
2008,07,29,09,21,1.50
2008,07,29,09,22,3.20
2008,07,29,09,23,1.90
2008,07,29,09,24,2.30
2008,07,29,09,25,0.60
2008,07,29,09,26,3.70
2008,07,29,09,27,3.60
2008,07,29,09,28,4.70
2008,07,29,09,29,4.00
2008,07,29,09,30,3.40
2008,07,29,09,31,1.30
2008,07,29,09,32,0.30
2008,07,29,09,33,1.90
2008,07,29,09,34,3.90
2008,07,29,09,35,3.20
2008,07,29,09,36,3.10
2008,07,29,09,37,1.80
2008,07,29,09,38,4.20
2008,07,29,09,39,5.10
2008,07,29,09,40,1.80
2008,07,29,09,41,1.70
2008,07,29,09,42,5.50
2008,07,29,09,43,3.00
2008,07,29,09,44,0.80
2008,07,29,09,45,1.20
2008,07,29,09,46,4.70
2008,07,29,09,47,3.00
2008,07,29,09,48,3.00
2008,07,29,09,49,4.20
2008,07,29,09,50,4.60
2008,07,29,09,51,6.60
2008,07,29,09,52,3.50
2008,07,29,09,53,5.30
2008,07,29,09,54,5.20
2008,07,29,09,55,4.90
2008,07,29,09,56,5.00
2008,07,29,09,57,3.10
2008,07,29,09,58,1.80
2008,07,29,09,59,0.20
2008,07,29,10,00,0.10
2008,07,29,10,01,0.40
2008,07,29,10,02,0.00
2008,07,29,10,03,0.80
2008,07,29,10,04,0.00
2008,07,29,10,05,0.10
2008,07,29,10,06,0.00
2008,07,29,10,07,0.00
2008,07,29,10,08,0.10
2008,07,29,10,09,2.20
2008,07,29,10,10,3.90
2008,07,29,10,11,4.50
2008,07,29,10,12,1.90
2008,07,29,10,13,3.40
2008,07,29,10,14,5.60
2008,07,29,10,15,3.90
2008,07,29,10,16,3.90
2008,07,29,10,17,5.30
2008,07,29,10,18,5.20
2008,07,29,10,19,3.30
2008,07,29,10,20,5.10
2008,07,29,10,21,3.80
2008,07,29,10,22,3.50
2008,07,29,10,23,4.40
2008,07,29,10,24,7.30
2008,07,29,10,25,8.10
2008,07,29,10,26,5.80
2008,07,29,10,27,5.90
2008,07,29,10,28,8.80
2008,07,29,10,29,6.40
2008,07,29,10,30,7.30
2008,07,29,10,31,10.80
2008,07,29,10,32,9.50
2008,07,29,10,33,7.80
2008,07,29,10,34,8.20
2008,07,29,10,35,6.60
2008,07,29,10,36,4.50
2008,07,29,10,37,7.20
2008,07,29,10,38,9.10
2008,07,29,10,39,10.90
2008,07,29,10,40,6.90
2008,07,29,10,41,7.70
2008,07,29,10,42,6.10
2008,07,29,10,43,12.40
2008,07,29,10,44,5.30
2008,07,29,10,45,3.10
2008,07,29,10,46,3.70
2008,07,29,10,47,8.10
2008,07,29,10,48,8.20
2008,07,29,10,49,10.70
2008,07,29,10,50,8.50
2008,07,29,10,51,8.10
2008,07,29,10,52,3.60
2008,07,29,10,53,5.30
2008,07,29,10,54,8.60
2008,07,29,10,55,6.10
2008,07,29,10,56,6.90
2008,07,29,10,57,8.60
2008,07,29,10,58,7.20
2008,07,29,10,59,9.70
2008,07,29,11,00,5.50
2008,07,29,11,01,8.40
2008,07,29,11,02,9.10
2008,07,29,11,03,9.10
2008,07,29,11,04,7.90
2008,07,29,11,05,2.80
2008,07,29,11,06,10.00
2008,07,29,11,07,7.50
2008,07,29,11,08,5.50
2008,07,29,11,09,12.90
2008,07,29,11,10,12.10
2008,07,29,11,11,9.30
2008,07,29,11,12,5.10
2008,07,29,11,13,8.10
2008,07,29,11,14,4.80
2008,07,29,11,15,9.20
2008,07,29,11,16,5.70
2008,07,29,11,17,10.20
2008,07,29,11,18,10.50
2008,07,29,11,19,5.50
2008,07,29,11,20,12.10
2008,07,29,11,21,6.00
2008,07,29,11,22,10.10
2008,07,29,11,23,6.70
2008,07,29,11,24,12.30
2008,07,29,11,25,5.40
2008,07,29,11,26,12.90
2008,07,29,11,27,10.70
2008,07,29,11,28,12.70
2008,07,29,11,29,7.40
2008,07,29,11,30,17.90
2008,07,29,11,31,13.70
2008,07,29,11,32,10.60
2008,07,29,11,33,8.90
2008,07,29,11,34,11.70
2008,07,29,11,35,13.70
2008,07,29,11,36,13.60
2008,07,29,11,37,13.90
2008,07,29,11,38,8.60
2008,07,29,11,39,10.70
2008,07,29,11,40,13.60
2008,07,29,11,41,9.80
2008,07,29,11,42,9.20
2008,07,29,11,43,12.00
2008,07,29,11,44,10.30
2008,07,29,11,45,11.80
2008,07,29,11,46,12.20
2008,07,29,11,47,18.40
2008,07,29,11,48,16.30
2008,07,29,11,49,18.80
2008,07,29,11,50,13.60
2008,07,29,11,51,10.80
2008,07,29,11,52,18.40
2008,07,29,11,53,15.20
2008,07,29,11,54,9.70
2008,07,29,11,55,10.80
2008,07,29,11,56,13.00
2008,07,29,11,57,7.20
2008,07,29,11,58,13.10
2008,07,29,11,59,12.80
2008,07,29,12,00,10.80
2008,07,29,12,01,10.20
2008,07,29,12,02,7.90
2008,07,29,12,03,9.10
2008,07,29,12,04,12.00
2008,07,29,12,05,14.20
2008,07,29,12,06,16.70
2008,07,29,12,07,10.40
2008,07,29,12,08,7.30
2008,07,29,12,09,13.00
2008,07,29,12,10,10.30
2008,07,29,12,11,10.40
2008,07,29,12,12,9.20
2008,07,29,12,13,12.80
2008,07,29,12,14,16.20
2008,07,29,12,15,10.50
2008,07,29,12,16,9.50
2008,07,29,12,17,3.40
2008,07,29,12,18,4.70
2008,07,29,12,19,6.00
2008,07,29,12,20,9.50
2008,07,29,12,21,7.00
2008,07,29,12,22,6.60
2008,07,29,12,23,6.80
2008,07,29,12,24,3.80
2008,07,29,12,25,8.30
2008,07,29,12,26,6.90
2008,07,29,12,27,3.30
2008,07,29,12,28,1.90
2008,07,29,12,29,6.10
2008,07,29,12,30,6.20
2008,07,29,12,31,3.60
2008,07,29,12,32,5.30
2008,07,29,12,33,4.80
2008,07,29,12,34,4.30
2008,07,29,12,35,4.30
2008,07,29,12,36,3.70
2008,07,29,12,37,2.30
2008,07,29,12,38,5.50
2008,07,29,12,39,6.90
2008,07,29,12,40,7.20
2008,07,29,12,41,5.30
2008,07,29,12,42,5.60
2008,07,29,12,43,5.80
2008,07,29,12,44,7.30
2008,07,29,12,45,6.10
2008,07,29,12,46,1.10
2008,07,29,12,47,6.70
2008,07,29,12,48,10.00
2008,07,29,12,49,5.50
2008,07,29,12,50,6.00
2008,07,29,12,51,5.10
2008,07,29,12,52,5.50
2008,07,29,12,53,3.90
2008,07,29,12,54,7.70
2008,07,29,12,55,8.50
2008,07,29,12,56,8.00
2008,07,29,12,57,5.50
2008,07,29,12,58,8.10
2008,07,29,12,59,10.60
2008,07,29,13,00,4.80
2008,07,29,13,01,4.50
2008,07,29,13,02,5.30
2008,07,29,13,03,6.60
2008,07,29,13,04,5.80
2008,07,29,13,05,4.40
2008,07,29,13,06,7.90
2008,07,29,13,07,11.30
2008,07,29,13,08,9.70
2008,07,29,13,09,4.10
2008,07,29,13,10,6.90
2008,07,29,13,11,6.50
2008,07,29,13,12,3.90
2008,07,29,13,13,7.80
2008,07,29,13,14,6.60
2008,07,29,13,15,6.00
2008,07,29,13,16,5.90
2008,07,29,13,17,4.80
2008,07,29,13,18,0.80
2008,07,29,13,19,4.80
2008,07,29,13,20,5.80
2008,07,29,13,21,3.90
2008,07,29,13,22,2.00
2008,07,29,13,23,7.00
2008,07,29,13,24,6.10
2008,07,29,13,25,5.60
2008,07,29,13,26,7.20
2008,07,29,13,27,4.10
2008,07,29,13,28,5.30
2008,07,29,13,29,6.40
2008,07,29,13,30,5.50
2008,07,29,13,31,3.60
2008,07,29,13,32,4.90
2008,07,29,13,33,9.10
2008,07,29,13,34,8.40
2008,07,29,13,35,7.30
2008,07,29,13,36,4.00
2008,07,29,13,37,5.60
2008,07,29,13,38,5.80
2008,07,29,13,39,4.70
2008,07,29,13,40,5.80
2008,07,29,13,41,7.80
2008,07,29,13,42,3.20
2008,07,29,13,43,1.00
2008,07,29,13,44,1.90
2008,07,29,13,45,4.70
2008,07,29,13,46,3.90
2008,07,29,13,47,5.60
2008,07,29,13,48,4.80
2008,07,29,13,49,6.40
2008,07,29,13,50,5.60
2008,07,29,13,51,6.60
2008,07,29,13,52,5.20
2008,07,29,13,53,5.30
2008,07,29,13,54,3.90
2008,07,29,13,55,2.80
2008,07,29,13,56,3.90
2008,07,29,13,57,2.90
2008,07,29,13,58,3.80
2008,07,29,13,59,4.20
2008,07,29,14,00,3.40
2008,07,29,14,01,4.00
2008,07,29,14,02,1.90
2008,07,29,14,03,5.20
2008,07,29,14,04,4.10
2008,07,29,14,05,4.50
2008,07,29,14,06,4.90
2008,07,29,14,07,5.00
2008,07,29,14,08,3.70
2008,07,29,14,09,2.90
2008,07,29,14,10,3.30
2008,07,29,14,11,4.80
2008,07,29,14,12,3.60
2008,07,29,14,13,0.50
2008,07,29,14,14,0.30
2008,07,29,14,15,2.90
2008,07,29,14,16,3.50
2008,07,29,14,17,1.00
2008,07,29,14,18,1.30
2008,07,29,14,19,1.80
2008,07,29,14,20,4.90
2008,07,29,14,21,2.80
2008,07,29,14,22,6.00
2008,07,29,14,23,5.80
2008,07,29,14,24,4.50
2008,07,29,14,25,3.90
2008,07,29,14,26,6.90
2008,07,29,14,27,6.00
2008,07,29,14,28,5.30
2008,07,29,14,29,9.50
2008,07,29,14,30,7.70
2008,07,29,14,31,8.90
2008,07,29,14,32,5.80
2008,07,29,14,33,3.60
2008,07,29,14,34,2.80
2008,07,29,14,35,5.50
2008,07,29,14,36,2.90
2008,07,29,14,37,6.80
2008,07,29,14,38,6.10
2008,07,29,14,39,4.50
2008,07,29,14,40,4.10
2008,07,29,14,41,2.70
2008,07,29,14,42,2.90
2008,07,29,14,43,8.20
2008,07,29,14,44,8.10
2008,07,29,14,45,5.20
2008,07,29,14,46,1.30
2008,07,29,14,47,3.00
2008,07,29,14,48,4.10
2008,07,29,14,49,3.60
2008,07,29,14,50,2.60
2008,07,29,14,51,2.00
2008,07,29,14,52,4.30
2008,07,29,14,53,1.20
2008,07,29,14,54,0.60
2008,07,29,14,55,0.00
2008,07,29,14,56,2.40
2008,07,29,14,57,5.30
2008,07,29,14,58,4.90
2008,07,29,14,59,2.30
2008,07,29,15,00,1.80
2008,07,29,15,01,3.20
2008,07,29,15,02,3.00
2008,07,29,15,03,5.80
2008,07,29,15,04,4.80
2008,07,29,15,05,3.00
2008,07,29,15,06,2.10
2008,07,29,15,07,3.80
2008,07,29,15,08,3.40
2008,07,29,15,09,2.90
2008,07,29,15,10,4.90
2008,07,29,15,11,6.20
2008,07,29,15,12,3.20
2008,07,29,15,13,7.00
2008,07,29,15,14,7.30
2008,07,29,15,15,7.10
2008,07,29,15,16,7.70
2008,07,29,15,17,5.30
2008,07,29,15,18,7.70
2008,07,29,15,19,5.00
2008,07,29,15,20,3.30
2008,07,29,15,21,6.40
2008,07,29,15,22,5.00
2008,07,29,15,23,4.20
2008,07,29,15,24,6.60
2008,07,29,15,25,4.30
2008,07,29,15,26,4.10
2008,07,29,15,27,5.90
2008,07,29,15,28,6.40
2008,07,29,15,29,4.90
2008,07,29,15,30,3.10
2008,07,29,15,31,0.80
2008,07,29,15,32,1.00
2008,07,29,15,33,6.30
2008,07,29,15,34,2.80
2008,07,29,15,35,3.50
2008,07,29,15,36,5.70
2008,07,29,15,37,6.00
2008,07,29,15,38,4.40
2008,07,29,15,39,3.50
2008,07,29,15,40,2.50
2008,07,29,15,41,4.70
2008,07,29,15,42,6.60
2008,07,29,15,43,3.70
2008,07,29,15,44,4.70
2008,07,29,15,45,3.40
2008,07,29,15,46,3.80
2008,07,29,15,47,5.80
2008,07,29,15,48,2.90
2008,07,29,15,49,2.80
2008,07,29,15,50,2.10
2008,07,29,15,51,4.90
2008,07,29,15,52,5.20
2008,07,29,15,53,5.80
2008,07,29,15,54,7.50
2008,07,29,15,55,4.10
2008,07,29,15,56,1.70
2008,07,29,15,57,4.00
2008,07,29,15,58,2.00
2008,07,29,15,59,1.90
2008,07,29,16,00,4.70
2008,07,29,16,01,2.40
2008,07,29,16,02,1.50
2008,07,29,16,03,3.60
2008,07,29,16,04,5.20
2008,07,29,16,05,4.90
2008,07,29,16,06,5.10
2008,07,29,16,07,1.90
2008,07,29,16,08,4.60
2008,07,29,16,09,2.60
2008,07,29,16,10,2.40
2008,07,29,16,11,3.00
2008,07,29,16,12,1.20
2008,07,29,16,13,1.90
2008,07,29,16,14,1.80
2008,07,29,16,15,2.80
2008,07,29,16,16,4.00
2008,07,29,16,17,0.50
2008,07,29,16,18,3.00
2008,07,29,16,19,5.10
2008,07,29,16,20,4.00
2008,07,29,16,21,4.10
2008,07,29,16,22,2.70
2008,07,29,16,23,0.20
2008,07,29,16,24,0.50
2008,07,29,16,25,1.90
2008,07,29,16,26,2.60
2008,07,29,16,27,3.40
2008,07,29,16,28,2.90
2008,07,29,16,29,0.60
2008,07,29,16,30,2.30
2008,07,29,16,31,3.40
2008,07,29,16,32,0.40
2008,07,29,16,33,1.00
2008,07,29,16,34,0.40
2008,07,29,16,35,1.80
2008,07,29,16,36,2.80
2008,07,29,16,37,5.50
2008,07,29,16,38,5.00
2008,07,29,16,39,3.50
2008,07,29,16,40,4.40
2008,07,29,16,41,3.50
2008,07,29,16,42,2.20
2008,07,29,16,43,3.80
2008,07,29,16,44,0.70
2008,07,29,16,45,2.80
2008,07,29,16,46,2.50
2008,07,29,16,47,2.40
2008,07,29,16,48,1.90
2008,07,29,16,49,4.70
2008,07,29,16,50,5.60
2008,07,29,16,51,4.90
2008,07,29,16,52,5.30
2008,07,29,16,53,5.90
2008,07,29,16,54,5.30
2008,07,29,16,55,4.80
2008,07,29,16,56,4.20
2008,07,29,16,57,4.20
2008,07,29,16,58,3.70
2008,07,29,16,59,2.20
2008,07,29,17,00,2.90
2008,07,29,17,01,3.70
2008,07,29,17,02,5.20
2008,07,29,17,03,3.40
2008,07,29,17,04,4.20
2008,07,29,17,05,2.50
2008,07,29,17,06,4.30
2008,07,29,17,07,4.60
2008,07,29,17,08,6.30
2008,07,29,17,09,5.00
2008,07,29,17,10,7.10
2008,07,29,17,11,7.80
2008,07,29,17,12,8.50
2008,07,29,17,13,10.80
2008,07,29,17,14,10.50
2008,07,29,17,15,13.90
2008,07,29,17,16,11.90
2008,07,29,17,17,9.40
2008,07,29,17,18,10.70
2008,07,29,17,19,12.60
2008,07,29,17,20,12.00
2008,07,29,17,21,6.20
2008,07,29,17,22,8.30
2008,07,29,17,23,7.10
2008,07,29,17,24,9.00
2008,07,29,17,25,7.80
2008,07,29,17,26,9.90
2008,07,29,17,27,10.90
2008,07,29,17,28,11.20
2008,07,29,17,29,14.10
2008,07,29,17,30,9.90
2008,07,29,17,31,11.50
2008,07,29,17,32,15.20
2008,07,29,17,33,16.80
2008,07,29,17,34,15.20
2008,07,29,17,35,11.10
2008,07,29,17,36,8.70
2008,07,29,17,37,14.60
2008,07,29,17,38,8.30
2008,07,29,17,39,11.40
2008,07,29,17,40,14.00
2008,07,29,17,41,9.50
2008,07,29,17,42,9.70
2008,07,29,17,43,7.60
2008,07,29,17,44,8.10
2008,07,29,17,45,9.00
2008,07,29,17,46,5.10
2008,07,29,17,47,9.70
2008,07,29,17,48,10.80
2008,07,29,17,49,16.70
2008,07,29,17,50,13.40
2008,07,29,17,51,10.80
2008,07,29,17,52,7.20
2008,07,29,17,53,13.00
2008,07,29,17,54,10.80
2008,07,29,17,55,13.00
2008,07,29,17,56,14.90
2008,07,29,17,57,16.50
2008,07,29,17,58,13.00
2008,07,29,17,59,14.70
2008,07,29,18,00,9.30
2008,07,29,18,01,9.70
2008,07,29,18,02,8.20